User: anonymous   Login
Location: Churchill
(58.7670°N, 94.1670°W)
Time: 08:56:51
(UTC-05:00)
Language:

Cosmos 2142 Rocket - Orbit

View from above orbital plane
View from above orbital plane
View from above satellite
View from above satellite

Ground track
Ground track

The orbit data is extracted from the following two-line orbital elements,

1 21231U 91029B   17085.87153557 +.00000053 +00000-0 +38039-4 0  9997
2 21231 082.9548 169.6509 0036681 099.6060 037.2830 13.75740084302206
Epoch (UTC): 26 March 2017 20:55:00
Eccentricity: 0.0036681
inclination: 82.9548°
perigee height: 952 km
apogee height: 1006 km
right ascension of ascending node: 169.6509°
argument of perigee: 99.6060°
revolutions per day: 13.75740084
mean anomaly at epoch: 37.2830°
orbit number at epoch: 30220

The dashed part of the orbit path shows where the satellite is in the earth's shadow,  

DLR